TIMESTAMP,CO2_1_1_1,H2O_1_1_1,TAU_1_1_1,TAU_SSITC_TEST_1_1_1,H_1_1_1,H_SSITC_TEST_1_1_1,LE_1_1_1,LE_SSITC_TEST_1_1_1,FC_1_1_1,FC_SSITC_TEST_1_1_1,WD_0_0_1,WS_0_0_1,WS_MAX_0_0_1,U_SIGMA_0_0_1,V_SIGMA_0_0_1,W_SIGMA_0_0_1,USTAR_0_0_1,MO_LENGTH_0_0_1,ZL_0_0_1,FETCH_MAX_0_0_1,FETCH_70_0_0_1,FETCH_80_0_0_1,FETCH_90_0_0_1,PA_0_0_1,RH_0_0_1,TA_0_0_1,VPD_0_0_1,T_SONIC_0_0_1,T_SONIC_SIGMA_0_0_1
[yyyymmddHHMMSS],[mmolCO2 mol-1],[mmolH2O mol-1],[kg m-1 s-2],[#],[W m-2],[#],[W m-2],[#],[umolCO2 m-2 s-1],[#],[Decimal degrees],[m s-1],[m s-1],[m s-1],[m s-1],[m s-1],[m s-1],[m],[#],[m],[m],[m],[m],[kPa],[%],[deg C],[hPa],[deg C],[deg C]
20191009003000,408.22129463988028,8.6954931134621543,0.38518920182829480,0,-68.470669914607882,0,24.383465551588372,0,4.7970087493092777,0,146.37113893231637,2.9838131178147371,7.2528928630699223,1.1681007129952523,0.92703823584221023,0.74015586613769702,0.58213498451781442,240.41897427938588,7.90287041900465670E-002,103.32735474182917,188.91535903762718,226.08343511209728,283.02963272397693,94.012579712639990,51.137241379310346,14.051379310344828,7.8133512884589811,13.952211770675831,0.37344621200688405
20191009010000,409.19475194681348,8.9736009572863171,0.53636228046500078,0,-64.622584651756583,0,5.5850404424267168,2,4.6997402339690559,0,143.14750576533490,3.5491135978936730,9.6505665104303855,1.3956310967638961,1.1075377662831922,0.86765539284680437,0.68595448701901662,416.84095884251735,4.55809334398403140E-002,103.75602484503320,189.69910470360136,227.02137850283222,284.20382654876545,94.028872769314248,55.602333333333334,13.251333333333321,6.7392503749999504,13.132364053514266,0.22686541461296514
20191009013000,409.65811598658217,9.2695346477705272,0.65793150190221472,0,-81.423156129028271,0,23.135617159397263,0,6.5285306602159876,0,146.34793091418862,3.4707262695761636,9.5577650026191083,1.5921485159357038,1.2345209454490946,0.97365091473454135,0.75956429082441557,449.22259850237560,4.22952898258957960E-002,102.65589889419260,187.68772359828864,224.61426903367521,281.19041113138150,94.037011921223950,57.925666666666665,13.122666666666646,6.3331450456555363,13.059707985772093,0.19623355384176655
20191009020000,409.90958324297969,9.3769898625379113,0.79877250984546011,0,-84.710720506734347,0,26.875330147857611,0,7.4580811360016614,0,144.74805531497688,3.4190608477972391,9.8208196048654948,1.6297952599660610,1.2430553254487580,0.96109903295271260,0.83654776102186168,576.82377626869459,3.29390028318622338E-002,112.05544910537554,204.87309921711284,245.18077444323060,306.93723539383132,94.033385912543395,59.676666666666669,12.843000000000018,5.9595555055943832,12.772170318603514,0.21431901470223155
20191009023000,410.49342745842569,9.4714524684160022,0.86398473690909650,0,-75.791896370495152,0,23.339909798239404,0,5.5464774648556876,0,146.62900948341235,3.7966040969334234,10.154917433816360,1.6985383815915933,1.3421821490787824,1.0211713298215161,0.86953952793424716,724.06119794295444,2.62408758458244663E-002,110.10510936048772,201.30725613449994,240.91337100237399,301.59495267439269,94.038420689887147,61.537666666666667,12.528333333333308,5.5684329237141030,12.456341534084743,0.21813486390955980
20191009030000,411.56926781698564,9.4808806130683347,0.65585949298511659,0,-67.523227137943081,0,23.973836277510003,0,5.4488357072461149,0,146.92492913227778,3.7771313259541524,9.6956563186689575,1.5377422850499809,1.2578632901948419,0.97297604530242299,0.75717253595562772,536.66294051309717,3.54039725229290531E-002,102.45403419290264,187.31865054288622,224.17258284893211,280.63747244047249,94.051136694010424,62.780333333333331,12.241333333333330,5.2878371042805519,12.172949380662658,0.18386566161899720
20191009033000,412.78180727814481,9.4365538080343061,0.68119779502549971,0,-50.395715140539387,0,18.268126481146950,0,3.9598440288368506,0,144.22057392630967,3.9868336614902682,9.1955544141371561,1.5006735382742995,1.2238053670619398,0.93943274313615799,0.77098104024599445,759.19684530963229,2.50264475114500805E-002,106.90482424319926,195.45611426150884,233.91104858288992,292.82887593100457,94.067412356024988,64.370666666666665,11.793333333333351,4.9146069063203912,11.705342276434635,0.26298966040195498
20191009040000,414.23812080607155,9.4696027219210119,1.0575251390914822,0,-54.914701328810260,0,13.120860081773584,0,4.3810964191634438,0,146.06428026338125,3.9665501116803648,11.201778954086322,1.8443585465770995,1.4003482397559011,1.1023023195326018,0.95927827287159828,1342.1867945104511,1.41560027841952166E-002,112.03920259966759,204.84339542312145,245.14522658827775,306.89273369769228,94.083979011611959,67.897666666666666,11.043333333333351,4.2135258742827446,10.964238385439785,0.20149007337125618
20191009043000,415.22944126092551,9.5526984524044423,0.72243025133780625,0,-66.763605497461086,0,18.437529768968886,1,5.6753746953110831,0,142.98936083872496,3.8993234703511117,10.925165346841284,1.7141579343064413,1.3144485985681522,1.0624826947116286,0.79223439149422936,621.90694427108872,3.05511944753553283E-002,99.010296461503387,181.02239964607170,216.63757861036237,271.20454126991331,94.094210028776956,70.476666666666659,10.615999999999985,3.7663916932723089,10.558750746946259,0.19296426154506363
20191009050000,416.38283463346198,9.6929075229912929,0.75019712963401197,0,-57.065260526965830,0,7.6312434008562322,1,4.9980590798940243,0,147.17886900376584,3.8099220847235822,9.6324362756383568,1.7368425128327114,1.3055033415781050,0.99541989642530693,0.80684895209578655,768.69784949070868,2.47171239162282258E-002,105.84823911425099,193.52433966524816,231.59920777328207,289.93472557038587,94.105988216145846,73.003666666666660,10.308333333333337,3.3740220512235899,10.292913028293242,0.16124695674135739
20191009053000,417.63403057795222,9.8215544923408817,0.73983492901540837,0,-65.970017861462225,0,10.911876288579251,0,6.8200508740821641,0,150.04378269940750,3.7957540531178560,10.265986920255431,1.6582614584034938,1.3428915382432127,1.0445734892890377,0.80091871996471564,650.40663763780060,2.92124940006850721E-002,101.24520309547886,185.10852175989112,221.52762317045449,277.32629678535170,94.108406476996535,75.201666666666668,10.062333333333299,3.0487383730233617,10.071743275112567,0.17371405098562193
20191009060000,418.44068923552209,9.8579809660101620,0.71772557651630164,0,-57.173656358873870,0,8.6210527245348825,0,5.1259741624934021,0,153.44720926963248,3.4106603897992573,10.231254772032816,1.6100631900061104,1.2614380196326644,1.0043611482970725,0.78865180116040412,716.56462000903628,2.65154034534392721E-002,103.19323225261118,188.67014035116276,225.78997097412577,282.66225044695807,94.116757321831599,76.140666666666661,9.9336666666666815,2.9081247986786094,9.9494887212117646,0.17499002021837762
20191009063000,419.30919837324421,9.8901998324144884,0.66256839664191736,0,-68.142952777205835,0,13.741792766694733,0,7.0822284020336106,0,152.24750542554355,3.4470600328794898,9.8205304858802585,1.5863418170067236,1.2070440667630895,0.96311002656337230,0.75744542181279084,532.66248324946457,3.56698671250357813E-002,103.32258245730554,188.90663377947590,226.07299320655221,283.01656069731609,94.123675383463549,77.449333333333328,9.7293333333333294,2.7112035529474259,9.7603635389540386,0.15649601637020319
20191009070000,419.81193119484783,9.8577720323477287,0.49612680018297556,0,-53.947234425383364,0,10.327757001711207,0,5.2170844120976421,0,153.42617431612268,3.6989366031883972,9.5089622670890925,1.5269150432629108,1.3180404425071646,0.95992058192270879,0.65523430439790087,435.59811225671069,4.36181871899452706E-002,92.253735017262443,168.66925043125062,201.85401403855434,252.69727270759952,94.138740043185763,77.874333333333340,9.6013333333333435,2.6373371643843848,9.6292965833875996,0.15661630398548806
20191009073000,420.08237943470971,9.7798611186235682,0.72605869514727650,0,-61.838014018560905,0,15.161205860947904,0,5.4929071103050102,0,154.44399899004071,3.4572437370014302,9.6489551453416702,1.6027463142970055,1.2851800967955567,0.97549027229960639,0.79253136340291774,672.42920170286061,2.82557627656329843E-002,106.04488165525943,193.88386494613337,232.02946771046371,290.47335995523571,94.136865687651095,77.715666666666664,9.5133333333333212,2.6405838957124832,9.5426545815903978,0.16536223442789366
20191009080000,420.82601060104935,9.7346836007171333,0.68085912749537825,0,-58.953914061214363,0,8.7993243721191217,0,5.1698240911922984,0,153.30976314535692,2.8940109613073606,8.3265567607061985,1.3511704814936718,1.1293785442418101,0.92660297751627518,0.76712095280636494,639.61727543029667,2.97052639599484289E-002,107.65421108914883,196.82623242058068,235.55073008623833,294.88156260151146,94.134989432266494,78.694333333333333,9.2583333333333258,2.4816530561720413,9.2988391820050538,0.16092605368417917
20191009083000,421.67120200673054,9.6867056797297764,0.58262792247283335,0,-69.633410275279672,0,14.533161056229854,0,7.0379628626157338,0,155.15362552077491,3.0466902522588217,8.1858318844836919,1.3185654598676682,1.1444119821669188,0.88517034831943120,0.70926049518395784,427.96410925213911,4.43962462955181381E-002,104.87646263034432,191.74762232045359,229.47293089150460,287.27287922759393,94.126574960937504,79.968666666666664,8.9456666666666820,2.2845193589991162,8.9797158135309019,0.19221900892699176
20191009090000,422.62118837295378,9.6383134287320296,0.55099978084920942,0,-65.274074498508455,0,7.9739697842854973,0,6.4252856998529202,0,153.25985977449707,2.9806480449548101,8.2689768134154011,1.3870433152150585,1.1228158884193489,0.88018379965821791,0.68932275464466286,419.11168621977396,4.53339780891644506E-002,102.97559144500289,188.27222354187938,225.31376618278472,282.06609855671530,94.126876547521888,81.396666666666661,8.6100000000000136,2.0740313635213194,8.6230753854898694,0.17842591141456590
20191009093000,423.30457141573498,9.5752171773907921,0.59383851039777658,0,-59.953016667336513,0,10.419426737153810,0,6.2043858859184891,0,153.24077544464518,3.0188180228957049,7.7705817020828878,1.3488802707340359,1.1241038218379047,0.88275886702399575,0.71524542828507454,509.81197769556542,3.72686418351391990E-002,105.81452856558158,193.46270603085244,231.52544805436028,289.84238715494240,94.144937398437506,82.163333333333327,8.3776666666666415,1.9574817849781676,8.4014844809638589,0.15168522304411020
20191009100000,423.38795944513834,9.4993612058886523,0.61878517880716777,0,-68.990939918796627,0,11.315613737733411,0,7.3210520712780278,0,154.28512846257752,3.1659452485792738,8.2821650462334002,1.5012512542798091,1.1246401735342939,0.89040238600336996,0.73007903837237820,471.19700432007727,4.03228369998158490E-002,106.82717682854272,195.31415002314395,233.74115364773954,292.61618763266273,94.155449567708331,81.453333333333333,8.3899999999999864,2.0371046831699107,8.4053688930935664,0.18988780445869713
20191009103000,423.30950834341968,9.4192275420819875,0.74995005328034459,0,-69.137424857821287,0,12.721219216653736,0,6.8428632844268815,0,154.37168995681128,3.5304429804280635,10.025048151427255,1.5448679193720407,1.2866120766888247,0.99023096995901727,0.80373862591428491,627.34713719391277,3.02862623793676566E-002,105.96381064031141,193.73564127453432,231.85208183241360,290.25129388529103,94.154692481770837,80.739999999999995,8.3946666666666943,2.1161247885934267,8.4017167705960105,0.17322494941146749
20191009110000,423.84382662883979,9.3620131530014579,0.73566621096441520,0,-70.524605988411125,0,14.289676120136512,0,7.6936457421007320,0,150.06150415061109,3.5266282750583584,10.549696798750057,1.5914292779938100,1.2445077549699266,0.96361055543397289,0.79578404342896703,596.93011650751725,3.18295215379047272E-002,107.44095062297896,196.43632427248500,235.08410961689836,294.29740914509699,94.156924643681208,81.203333333333333,8.2210000000000036,2.0410092555854282,8.2040893761123925,0.17548476293624207
20191009113000,424.14877731553543,9.3103986556336391,0.54368887057630266,0,-53.653358225361714,0,8.0974946743592398,0,5.6861690157505871,0,147.16633044901869,3.6062928851274054,9.0925194839275942,1.4784315506885617,1.2419526137618444,0.93642844526032898,0.68391132830716017,498.06478429524714,3.81476478544546457E-002,97.381186062373089,178.04386625834871,213.07303487329989,266.74215549525837,94.159896639756951,81.609999999999999,8.0666666666666629,1.9760097397965593,8.0510539796617309,0.15306169730107558
20191009120000,423.95633367993150,9.2124989971432072,0.69323843195081669,0,-67.826904153848446,0,20.345332518527648,1,6.1373854249988966,0,146.11296933823627,3.4502319428191450,9.1641121615551135,1.5576008118636842,1.1666148608110325,0.92914270354712192,0.77225172825766575,567.26399114465812,3.34941055603771021E-002,107.99311648625502,197.44585957482337,236.29226553488346,295.80987698941777,94.170261354817711,80.583333333333329,8.0989999999999895,2.0909187424932041,8.0816694115533210,0.18696615917589868
20191009123000,424.07052380128340,9.1249401890693456,0.70520624558005018,0,-66.320139905307087,0,15.058357918597082,0,6.5949228689724011,0,141.63243842164837,3.4046832593570415,9.2563542777354968,1.5378745740330280,1.2271987042547674,0.95633275203486801,0.77891182466998010,595.27469033593388,3.19180376865639132E-002,106.25718682388754,194.27202650564618,232.49399795935494,291.05489670368291,94.168343667520986,79.707333333333338,8.1190000000000282,2.1882265307713773,8.0751988261674796,0.16379027828215453
20191009130000,423.59053526883451,9.1198267392763643,0.79483320696813620,0,-39.983131405891193,0,17.419510287921238,0,4.9737830179858937,0,139.19103967926435,3.2511479329345736,8.7906600481799106,1.6040009570750555,1.3273887994996478,1.0268168400348949,0.82729617634776353,1183.1273682024737,1.60591332012433412E-002,105.33903303312036,192.59334854599140,230.48504918198142,288.53993122494546,94.176132709841028,78.201999999999998,8.3926666666666847,2.3946536448823315,8.3324657565236748,0.19082037748082356
20191009133000,422.42929156657669,9.1192492554832949,0.73650049763234271,0,17.218368432629884,1,20.898485396578767,0,2.0224769748969331,1,139.18989465349185,3.5378047439957720,10.228259649789956,1.6321958899078075,1.2452516436722560,0.95059898680812904,0.79722406009405644,-2458.7863908807681,-7.72738944320981117E-003,108.77305840311817,198.87184214856529,237.99880247462139,297.94625873292955,94.188743532118053,74.846999999999994,9.0416666666666856,2.8872870451475796,8.9462759755452907,0.17516793641871059
20191009140000,421.21285070530433,9.2434576537784618,0.71600726776011836,0,26.905905321801832,0,27.304302232146618,0,2.6503866948250576,0,143.83632735471485,3.5458177084132836,8.8852110054063846,1.5327289725184312,1.2322221984652499,0.94701098704410525,0.78699783376606380,-1513.9131123874254,-1.25502579008891710E-002,107.98158930653877,197.42478421389666,236.26704371057647,295.77830225831593,94.201461772352431,72.371666666666670,9.7443333333333157,3.3250232783055824,9.6290916434394376,0.25824740764957033
20191009143000,419.15240564492336,9.5089594863956854,0.62887284530048870,0,73.253826757578508,0,33.712262351558884,0,0.93874458295368268,2,143.81589026545228,3.2126577776335972,8.2809085577314043,1.4636408262806662,1.1729739871544917,0.88958302224936658,0.73915350934258717,-460.68548408291417,-4.12428883836513036E-002,107.96759456465439,197.39919736233801,236.23642278423387,295.73996849214632,94.193653708940076,68.833333333333329,10.917333333333318,4.0566045593017588,10.759763637252775,0.41838300397960343
20191009150000,416.51422918233976,9.7553290031934967,0.86436211349651659,0,77.614003997179026,0,46.052421455611039,0,2.6817135347755565,1,142.58616762281005,3.1549285863208465,9.9006558622005514,1.5855666978994254,1.2361957470078322,0.98034645676697929,0.86914951628608283,-706.85606089758107,-2.68795884354070466E-002,113.71737530306153,207.91163035065773,248.81712015840381,311.48950872474819,94.171014945963549,63.510333333333335,12.519000000000005,5.2796016406177841,12.358308980305935,0.54675281883238414
20191009153000,414.26673996982686,9.7965884233424614,0.70098013527151570,0,83.430678171923802,0,43.473853061685055,0,1.3112052805944341,0,148.32839400918655,3.9181309504359474,12.268242810590060,1.9183886932336378,1.4794972213506203,1.0448322956338163,0.78498921944992450,-484.37663630829195,-3.92256739400350454E-002,99.611294330241421,182.12121542856391,217.95258046053883,272.85076754253805,94.144746706380204,57.503333333333330,14.102333333333320,6.8178788422745313,13.917621229383599,0.39352447396604950
20191009160000,413.13903578118612,9.6882439685335964,0.82581668729926416,0,150.41763338353178,0,55.107302091259875,0,-0.75661074872789946,1,150.17132714501830,4.0670257382257446,11.056552500970835,1.9654766466041047,1.6944576061914203,1.1462103820259413,0.85369829962570232,-345.51722147427097,-5.49900231280218282E-002,98.920650282945147,180.85849784048503,216.44143001018037,270.95898649832503,94.125113834852442,53.024000000000001,15.182999999999993,8.0811023542355400,14.948706680297960,0.37176240583335679
20191009163000,411.81621274562144,9.6353799283773345,1.6261098368428306,0,158.92214161759964,0,60.733804025552431,0,2.2640672870149001,1,152.13744538025531,4.8407249894328928,16.711575928291200,2.5945128721791404,1.8910827267766013,1.3914924158082409,1.1996617091701711,-907.34088040440042,-2.09403107589858951E-002,111.20319436297125,203.31490573528887,243.31601481365556,304.60277761803081,94.100835921436527,50.222999999999999,15.940333333333342,8.9888652900698407,15.641209348449138,0.32647891409548246
20191009170000,411.08208173411731,9.6016522459443969,1.6698163023020154,0,202.44581988366065,0,83.688330527123100,0,-0.50488827916006074,2,154.59924245605728,5.4314814295059701,16.204925502347020,2.5675837905417160,2.2355603715467849,1.4851939628995066,1.2170796401163786,-743.62408098314165,-2.55505442681202531E-002,106.77843653333359,195.22503721858178,233.63450838040649,292.48268041294955,94.077609983940974,48.158000000000001,16.540000000000020,9.7266218758597809,16.218264829847612,0.34746250545979618
20191009173000,411.09396078173285,9.5169358224792262,2.2890973477283958,0,247.88438129623472,0,101.18328038549613,0,1.4334541284253133,0,152.17764816312990,5.1552824723308879,16.774734466666583,2.8639778452350790,2.2754796238149102,1.5979465821869252,1.4265775226291508,-977.87581198608814,-1.94298700991596927E-002,114.35137619369613,209.07078618295083,250.20433363712814,313.22613538737136,94.059943742838541,45.958666666666666,17.134000000000015,10.528753778522992,16.760766799926841,0.38483829776833450
20191009180000,410.34760475074148,9.0511806308340166,1.6819697185078366,0,222.00184987137885,0,105.20125587776707,0,0.57328404726135984,1,153.47145080059170,5.4380380261847865,15.817353978876023,2.5244532610393495,2.1651048212103707,1.6036176008439604,1.2242113777411148,-689.83375295172152,-2.75428680007336890E-002,100.89261478098588,184.46387786872268,220.75614907707302,276.36050276688434,94.033351595923861,42.027000000000001,17.750999999999976,11.743593556858604,17.315053737660321,0.32477556160345961
20191009183000,410.16779124105813,8.8631412443228204,2.1499121118939892,0,287.98603181427376,0,141.33638835381419,0,-6.36925598170512974E-002,2,159.17822241331010,5.3217679644835041,16.351940480911672,2.7718894034559276,2.4018240858123190,1.6255266192520896,1.3853360368594811,-770.39542017137023,-2.46626595933988717E-002,110.18024570724080,201.44462933987330,241.07777164359968,301.80076276871750,94.002036102213552,39.975333333333332,18.207666666666682,12.513507937016499,17.718461198594866,0.35062625867597952
20191009190000,409.49993465299769,8.4875652775119992,2.3342288093484345,0,237.33881872141654,0,120.21699518011164,0,0.87235082350052517,0,160.60771444646997,5.1762379635159173,16.301907995624731,3.1386954946388448,2.1764961471900279,1.6067393443993072,1.4444177370723665,-1059.2441643783063,-1.79373185512440546E-002,114.98807599138553,210.23487647811240,251.59745240762666,314.97015477454840,93.968778431206587,37.532666666666664,18.516999999999996,13.277818654677713,17.998550020005951,0.33561214357362418
20191009193000,409.38805788587860,8.6171037991412245,1.6209843916458699,0,250.72377071020489,0,77.769440644314642,0,-1.7440386113865360,2,156.63679031824000,4.5482110697340001,13.751715620372648,2.4038966224688503,1.9435935861579412,1.4614494191075906,1.2045820115131978,-581.52056112440096,-3.26729633828638649E-002,107.27461568679450,196.13221095933281,234.72016365267916,293.84179198529375,93.954197253038188,37.208666666666666,18.895333333333326,13.666257115106566,18.425855202568982,0.35257338917080261
20191009200000,410.04147065755058,8.7501248514250154,1.4079887039020880,0,173.76459360689688,0,93.082222004276943,0,1.6985339969563562,0,153.52080227927283,4.5098010581231200,14.111336371084278,2.5425324677824701,1.9757249828275583,1.3875146535561962,1.1229846306263942,-679.84190674988918,-2.79476740273823937E-002,105.72163892444395,193.29287414122129,231.32220265814166,289.58794803685277,93.949758272556892,37.446333333333335,19.038000000000011,13.736303210439164,18.526837332569926,0.30407116568314468
20191009203000,410.02594612836532,8.7717023565918506,1.4079824814829196,0,155.68674265375935,0,92.551153304176111,0,1.8522568866270637,0,148.93971072349075,4.5749886102501351,15.447109955122269,2.4366128117800683,2.0316784894815361,1.3786878302984469,1.1229808980164833,-758.74942235472577,-2.50412052256129940E-002,106.26250296422629,194.28174610568144,232.50562983817665,291.06945843567877,93.944841779836565,37.579666666666668,19.019666666666694,13.691356069073963,18.522212956275894,0.26859545934661527
20191009210000,409.96412542688091,9.0597488118338969,1.1905314055300436,0,103.88221768331013,0,33.986473386358796,0,0.59288534945891680,0,138.70222342080564,4.1679884416259512,13.783531618050754,2.1916323104046969,1.7574882589647332,1.2198493111304161,1.0328312379328628,-884.57872187044006,-2.14791510695899815E-002,109.60577654162363,200.39431648758193,239.82081541305243,300.22720272392468,93.925434304036457,38.751666666666665,19.042000000000030,13.453018438664699,18.582820386250830,0.20840177625769798
20191009213000,410.06034038247236,9.0914927275413433,1.2414849119402449,0,83.116424920488797,0,92.688810512250242,0,4.1842006581659943,0,138.96606615842350,3.8067053823730919,13.248668971465921,2.0138619402932361,1.7455551010200485,1.2385574257963761,1.0542887195578585,-1175.9468247364516,-1.61571931658204028E-002,110.07523711293128,201.25264013870208,240.84800960452390,301.51312796035000,93.927357682508685,39.441666666666663,18.815666666666687,13.114823065524131,18.361561585320374,0.22240623130554885
20191009220000,410.15794399012560,9.0893563958407046,1.0900798334028348,0,48.800479636655091,0,57.084133345570997,0,2.4253808015402982,0,137.31952563618916,4.2436118934836076,12.720376013742232,2.1311978445159632,1.6256740092331572,1.1846768859583570,0.98723329457906883,-1644.5171442490393,-1.15535432795237022E-002,108.22081558909730,197.86216615572323,236.79047818603621,296.43358010859708,93.930824511333483,40.407333333333334,18.425999999999988,12.594773909778981,18.019297238830177,0.13005497924482115
20191009223000,410.28157247097153,9.2245705404204372,1.5246143728789809,0,15.053946700747147,0,49.596149518361472,0,4.3468988634099563,0,139.78602728854150,3.9947411639264940,11.788184226468937,2.1743070806130378,1.6712405035798659,1.2885056012663216,1.1665849824310399,-8797.7151422825518,-2.15965164735607527E-003,115.64289527732410,211.43209497670779,253.03021717657424,316.76380624721827,93.949832546657987,42.142666666666663,17.994666666666660,11.901317623277409,17.665138659159311,0.14602300888101752